User: anonymous   Login
Location: Unspecified
(0.0000°N, 0.0000°E)
Time: 06:03:54
(UTC+00:00)
Language:

PROITERES - Orbit

View from above orbital plane
View from above orbital plane
View from above satellite
View from above satellite

Ground track
Ground track

The orbit data is extracted from the following two-line orbital elements,

1 38756U 12047B   19083.82964061  .00000064  00000-0  17148-4 0  9995
2 38756  98.3544 237.3089 0011034 216.7415 143.3034 14.76548481352119
Epoch (UTC): 24 March 2019 19:54:40
Eccentricity: 0.0011034
inclination: 98.3544°
perigee height: 632 km
apogee height: 648 km
right ascension of ascending node: 237.3089°
argument of perigee: 216.7415°
revolutions per day: 14.76548481
mean anomaly at epoch: 143.3034°
orbit number at epoch: 35211

The dashed part of the orbit path shows where the satellite is in the earth's shadow,  

DLR